STARLINK-33564, 62286

Orbit data source: Space-Track

STARLINK-33564, 62286 is a payload satellite owned by SpaceX/Seattle (US) in LEO that was launched on Sun, 08 Dec 2024 UTC via an FALCON 9 launch vehicle from the Air Force Eastern Test Range (AFETR). Payload-class satellites include a variety of spacecraft equipped with specific instruments for various scientific and technological missions. These include communications satellites like Starlink; space stations such as the ISS; scientific satellites like the Hubble; Earth observation satellites from companies like Planet Labs, Umbra, and HawkEye 360; GPS; miniature CubeSats for education and research; and military/defense satellites.

Loading next visibility...
Identifier
62286, 2024-237V
Orbit
LEO
Country
Flag of USUS
Related business
Manufacturer
SpaceX/Seattle
Mission
Operational Commercial Communications
Bus & Motor
STARLINK V2MO, Unknown motor
Mass
530 kg wet, ~500 kg dry
Launch date (UTC)
2024-12-08 (2 years ago)
Launch vehicle
FALCON 9
Launch site
Air Force Eastern Test Range (AFETR)
Object type
Payload
Rocket body
Debris
Shape & HBR
Box + 2 Pan, 17.7 m
Radar Cross Section
36.964 m², Large (>1 m²)

Expand to show TLE details & history
Last TLE update: 1 day ago

TLE from 1 day ago
0 STARLINK-33564
1 62286U 24237V   26170.58298718  .00015864  00000-0  58458-3 0  9993
2 62286  43.0011   1.0537 0000846 253.9158 106.1600 15.27590595 86772
Epoch: 2026-06-19T13:59Z
TLE epoch observation values (Epoch: 2026-06-19T13:59:30.092Z)
Latitude
-0.00005°
Longitude
-116.63162°
Altitude
482.954 km
Speed
7.626 km/s
True Right ascension
00h 04m 12s
True Declination
0° 00' 00"
Sunlit
Object was in daylight at epoch
Visualization orbit readout
Latitude
Unknown
Longitude
Unknown
Altitude
Unknown
Speed
Unknown
Apparent Right ascension
Unknown
Apparent Declination
Unknown
Sunlit
N/A
Visualization observer readout
Local Sidereal Time
07:24:00
Azimuth
Unknown
Elevation
Unknown
Doppler factor
Unknown
Orbital elements
Apogee altitude
485.543 km
Perigee altitude
484.382 km
Semi-major axis
6,863.099 km
Eccentricity
0.00008
Inclination
43.0011°
RAAN
1.0537°
Arg. of periapsis
253.9158°
True anomaly
106.16931°
Mean anomaly
106.16°
Eccentric anomaly
106.16466°
Mean motion
3.81736 °/min
Orbital period
94.31 mins
BSTAR
0.00058458
Loading maneuver chart data...
Computing Atmospheric mass density...
Loading historical data...
Loading historical data...
Loading historical data...
Loading historical data...
Loading historical data...
Loading historical data...
Loading historical data...

Documentation

Showing up to 5 results
|